Regional Weather Roundup
Issued by NWS

Home | Current Version | Previous Version | Graphics & Text | Print | Product List | Glossary On
Versions: 1 2 3 4 5 6 7 8 9 10 11 12 13 14 15 16 17 18 19 20 21 22 23 24 25 26 27 28 29 30 31 32 33 34 35 36 37 38 39 40 41 42 43 44 45 46 47 48 49 50
000
ASUS43 KMKX 140059
RWRWI

WISCONSIN REGIONAL WEATHER ROUNDUP
NATIONAL WEATHER SERVICE MILWAUKEE/SULLIVAN WI
700 PM CST WED DEC 13 2017

NOTE: "FAIR" INDICATES FEW OR NO CLOUDS BELOW 12,000 FEET WITH NO
SIGNIFICANT WEATHER AND/OR OBSTRUCTIONS TO VISIBILITY.

WIZ001-002-006>008-014>016-023>028-140200-
NORTHWEST WISCONSIN

CITY           SKY/WX    TMP DP  RH WIND       PRES   REMARKS
SUPERIOR ARPT  CLOUDY    23  17  78 N8        29.88R WCI  14
ASHLAND        CLOUDY    20  13  74 N16G25    29.86R WCI   6
HAYWARD        FLURRIES  16  12  84 CALM      29.81R
SIREN          MOCLDY    16  13  86 N5        29.84R WCI   9
CUMBERLAND     CLEAR     16  10  79 N8        29.80R WCI   5
RICE LAKE      CLEAR     15  11  84 CALM      29.82R
CHETEK           N/A     15  11  86 N5        29.80R WCI   7
LADYSMITH      CLEAR     15  11  87 N8        29.80R WCI   3
EAU CLAIRE     NOT AVBL
MENOMONIE      CLEAR     19  12  76 NW10      29.82R WCI   7
NEW RICHMOND   CLEAR     18  12  77 N8        29.84R WCI   8
OSCEOLA        CLEAR     21  15  75 N6        29.88R WCI  14
$$

WIZ003>005-009-010-017-018-140200-
NORTH CENTRAL WISCONSIN

CITY           SKY/WX    TMP DP  RH WIND       PRES   REMARKS
MANITOWISH WTR FLURRIES  14  14  97 N3        29.73R
ARBOR VITAE    FLURRIES  17  14  89 N6        29.72R WCI   8
WOODRUFF       FLURRIES  17  14  89 N6        29.72R WCI   8
RHINELANDER    CLOUDY    13  11  92 CALM      29.72R
EAGLE RIVER    FLURRIES  15  11  85 N6        29.71R WCI   6
LAND O LAKES   FLURRIES  17  14  88 N5        29.74R WCI  10
PHILLIPS       CLEAR      9   8  97 N5        29.75R WCI   1
TOMAHAWK       CLEAR     13  10  89 NW3       29.72R
MEDFORD        CLEAR     14  10  83 N9        29.71R WCI   2
MERRILL        CLEAR     15  12  88 N5        29.73R WCI   7
$$

WIZ029-030-035-036-043>047-140200-
CENTRAL WISCONSIN

CITY           SKY/WX    TMP DP  RH WIND       PRES   REMARKS
WAUSAU         CLOUDY    17  13  84 N8        29.72R WCI   7
MOSINEE        LGT SNOW  18  16  93 N12G17    29.72R WCI   5
MARSHFIELD     PTCLDY    18  13  80 N10       29.72R WCI   6
STEVENS POINT  MIX PCPN  18  15  89 N12       29.70R WCI   5
WAUPACA        LGT SNOW  22  17  79 N10G18    29.71R WCI  11
WAUTOMA        LGT SNOW  21  17  84 N13       29.70R FOG     WCI   9
WISC RAPIDS    LGT SNOW  20  16  84 N12       29.73R FOG     WCI   8
CAMP DOUGLAS   NOT AVBL
$$

WIZ011>013-019>022-031-037>040-048>050-140200-
NORTHEAST WISCONSIN

CITY           SKY/WX    TMP DP  RH WIND       PRES   REMARKS
ANTIGO         MOCLDY    14  10  84 N12       29.68R WCI   1
SHAWANO        CLOUDY    20  15  81 N16G23    29.72R WCI   5
OCONTO         CLOUDY    18  12  78 N15G25    29.70R WCI   3
STURGEON BAY   FLURRIES  20  15  81 N18       29.68R WCI   5
GREEN BAY      LGT SNOW  20  14  77 N23       29.68R WCI   3
MANITOWOC      LGT SNOW  25  21  85 N10G18    29.62R FOG     WCI  15
APPLETON       LGT SNOW  19  16  86 N22G28    29.62R WCI   3
CLINTONVILLE   CLOUDY    19  12  73 N14G21    29.69R WCI   6
OSHKOSH        LGT SNOW  22  19  89 N20G28    29.64R FOG     WCI   7
$$

WIZ032>034-041-042-053>061-140200-
SOUTHWEST WISCONSIN

CITY           SKY/WX    TMP DP  RH WIND       PRES   REMARKS
LA CROSSE      CLOUDY    23  14  68 N13       29.79R WCI  11
SPARTA         FLURRIES  20  15  78 NW8       29.75R WCI  11
VIROQUA        CLOUDY    20  15  79 N18       29.71R WCI   5
BOSCOBEL       CLOUDY    25  13  60 N13G24    29.75R WCI  14
PRAIRIE DU CHI CLOUDY    26  15  63 NW16G23   29.74R WCI  13
PLATTEVILLE    MOCLDY    26  17  70 NW22G31   29.67R WCI  11
$$

WIZ056-057-062-063-064-067-068-140200-
SOUTH CENTRAL WISCONSIN

CITY           SKY/WX    TMP DP  RH WIND       PRES   REMARKS
REEDSBURG      CLOUDY    21  16  79 N15       29.69R WCI   8
BARABOO/DELLS  CLOUDY    21  16  83 NW13G18   29.66R WCI   8
LONE ROCK      CLOUDY    24  15  68 NW10      29.72R WCI  14
MINERAL POINT  FLURRIES  27  18  69 NW20G28   29.65R WCI  13
MADISON        CLOUDY    23  17  78 NW14G21   29.64R WCI  11
MIDDLETON      CLOUDY    24  18  75 NW16G24   29.64R WCI  11
WATERTOWN      LGT SNOW  25  25  99 NW13      29.57R WCI  14
MONROE         CLOUDY    25  16  68 NW15G26   29.60R WCI  12
JANESVILLE     CLOUDY    27  18  69 NW18G25   29.59R WCI  13
$$

WIZ051-052-058>065-066-070>072-140200-
SOUTHEAST WISCONSIN

CITY           SKY/WX    TMP DP  RH WIND       PRES   REMARKS
MILWAUKEE      LGT SNOW  29  25  85 N21G32    29.53R FOG     WCI  16
WAUKESHA       LGT SNOW  25  21  86 N13G18    29.55R WCI  13
MILWAUKEE/TIMM LGT SNOW  27  21  80 N18G25    29.54R WCI  13
RACINE         LGT SNOW  29  26  89 N24G37    29.53R FOG     WCI  15
BURLINGTON     FLURRIES  24  22  91 NW17G24   29.52  WCI  11
KENOSHA        LGT SNOW  27  21  78 NW17G29   29.51R WCI  14
FOND DU LAC    MIX PCPN  25  20  81 N20G29    29.63R WCI  11
SHEBOYGAN      LGT SNOW  24  23  96 N18G26    29.58R FOG     WCI  10
WEST BEND      LGT SNOW  25  23  93 N10G23    29.55R WCI  15
JUNEAU         LGT SNOW  24  22  89 N14       29.58R WCI  12
$$

LSZ147-162-140200-
LAKE SUPERIOR

STATION/POSITION TIME  TEMP    WIND        PRES    WAVE
                       AIR SEA DIR/SP/G            HT/PER
                 (UTC) (F)     (DEG/KT/KT) (MB)    (FT/S)
DEVILS ISLAND    0000   21      30/ 20/ 23 1011.7R
SAXON HARBOR     0030   25                 1009.8R
$$

LMZ867-665-643>646-140200-
LAKE MICHIGAN

STATION/POSITION TIME  TEMP    WIND        PRES    WAVE
                       AIR SEA DIR/SP/G            HT/PER
                 (UTC) (F)     (DEG/KT/KT) (MB)    (FT/S)
NORTHPORT PIER   0040   19      20/ 18/ 24 1006.1R
KEWAUNEE LAKESHO 0030   24      10/ 10/ 18 1002.3R
SHEBOYGAN LAKESH 0000   26      30/ 26/ 29 1000.6R
PORT WASHINGTON  0030   26      10/  9/ 14 1001.7R
MILWAUKEE LAKESH 0040   29      10/ 22/ 26   N/A
KENOSHA   LAKESH 0000   27     310/ 21/ 27  997.0
$$

TC  - TEMPERATURE IN CELSIUS
VSB - VISIBILITY IN STATUTE MILES
WCI - WIND CHILL INDEX
HX  - HEAT INDEX




USA.gov is the U.S. government's official web portal to all federal, state and local government web resources and services.